{"data":{"norad_id":58207,"intl_designator":"2023-170B","name":"STARLINK-30845","alt_names":[],"object_type":"PAYLOAD","status":"ACTIVE","operator":null,"country":"US","launch_date":"2023-11-03","launch_site_code":"AFETR","launch_vehicle":null,"mission":null,"orbit_class":"UNKNOWN","rcs_meters":null,"size_class":null,"mass_kg":null,"dimensions":null,"purposes":["comms"],"wikipedia_slug":null,"has_3d_model":false,"image_url":null,"decayed_at":null,"tle_current":{"epoch":"2026-05-24T11:21:10.027872Z","epoch_age_seconds":114445,"freshness":"FRESH","line1":"1 58207U 23170B   26144.47303273  .00013137  00000+0  90334-3 0  9997","line2":"2 58207  42.9980 142.9163 0001434 285.6610  74.4075 15.05818484141694","mean_motion":15.05818484,"eccentricity":0.0001434,"inclination_deg":42.998,"raan_deg":142.9163,"arg_perigee_deg":285.661,"mean_anomaly_deg":74.4075,"bstar":0.00090334,"rev_number":14169,"period_min":95.62905591216,"perigee_km":548.00104361897,"apogee_km":549.98774490285,"semimajor_km":6927.1313942609,"source":"CELESTRAK","updated_at":"2026-05-25T13:38:18.574047Z"}}}